Time,TemperatureF,DewpointF,PressureIn,WindDirection,WindDirectionDegrees,WindSpeedMPH,WindSpeedGustMPH,Humidity,HourlyPrecipIn,Conditions,Clouds,dailyrainin,SolarRadiationWatts/m^2,SoftwareType,DateUTC
2013-10-16 00:01:00,47.1,46.3,29.74,ENE,74,1.1,1.1,97,0.00,RA,,0.00,0.0,WeatherDisplay:10.37,2013-10-16 05:01:00,
2013-10-16 00:06:00,47.0,46.2,29.74,NE,45,3.0,3.0,97,0.00,-RA,,0.00,0.0,WeatherDisplay:10.37,2013-10-16 05:06:00,
2013-10-16 00:11:00,47.0,46.2,29.74,NNE,28,3.5,3.5,97,0.00,-RA,,0.00,0.0,WeatherDisplay:10.37,2013-10-16 05:11:00,
2013-10-16 00:16:00,46.9,45.8,29.74,NNE,28,3.0,3.0,96,0.00,-RA,,0.00,0.0,WeatherDisplay:10.37,2013-10-16 05:16:00,
2013-10-16 00:21:00,46.8,45.7,29.74,NW,325,2.3,2.3,96,0.00,-RA,,0.00,0.0,WeatherDisplay:10.37,2013-10-16 05:21:00,
2013-10-16 00:26:00,46.8,45.7,29.74,North,350,1.1,1.1,96,0.00,-RA,,0.00,0.0,WeatherDisplay:10.37,2013-10-16 05:26:00,
2013-10-16 00:31:00,46.7,45.6,29.74,ENE,69,1.0,0.0,96,0.00,-RA,,0.00,0.0,WeatherDisplay:10.37,2013-10-16 05:31:00,
2013-10-16 00:36:00,46.7,45.6,29.74,NE,34,3.5,3.5,96,0.00,-RA,,0.00,0.0,WeatherDisplay:10.37,2013-10-16 05:36:00,
2013-10-16 00:41:00,46.6,45.8,29.74,NE,44,1.1,1.1,97,0.00,-RA,,0.00,0.0,WeatherDisplay:10.37,2013-10-16 05:41:00,
2013-10-16 00:46:00,46.6,45.8,29.74,WSW,238,2.3,2.3,97,0.00,-RA,,0.00,0.0,WeatherDisplay:10.37,2013-10-16 05:46:00,
2013-10-16 00:51:00,46.5,45.7,29.74,WNW,301,1.1,1.1,97,0.00,-RA,,0.00,0.0,WeatherDisplay:10.37,2013-10-16 05:51:00,
2013-10-16 00:56:00,46.5,45.7,29.75,NNE,30,2.3,2.3,97,0.00,-RA,,0.00,0.0,WeatherDisplay:10.37,2013-10-16 05:56:00,
2013-10-16 01:01:00,46.4,45.6,29.75,NE,55,3.5,3.5,97,0.00,-RA,,0.00,0.0,WeatherDisplay:10.37,2013-10-16 06:01:00,
2013-10-16 01:06:00,46.4,45.3,29.75,North,360,1.1,1.1,96,0.00,-RA,,0.00,0.0,WeatherDisplay:10.37,2013-10-16 06:06:00,
2013-10-16 01:11:00,46.3,45.5,29.76,NE,55,3.5,3.5,97,0.00,-RA,,0.00,0.0,WeatherDisplay:10.37,2013-10-16 06:11:00,
2013-10-16 01:16:00,46.3,45.2,29.76,NNE,24,2.3,2.3,96,0.00,-RA,,0.00,0.0,WeatherDisplay:10.37,2013-10-16 06:16:00,
2013-10-16 01:21:00,46.3,45.5,29.76,North,5,3.5,3.5,97,0.00,-RA,,0.00,0.0,WeatherDisplay:10.37,2013-10-16 06:21:00,
2013-10-16 01:26:00,46.2,45.4,29.76,NNE,22,2.3,2.3,97,0.00,-RA,,0.00,0.0,WeatherDisplay:10.37,2013-10-16 06:26:00,
2013-10-16 01:31:00,46.2,45.4,29.77,NE,41,2.3,2.3,97,0.00,-RA,,0.00,0.0,WeatherDisplay:10.37,2013-10-16 06:31:00,
2013-10-16 01:36:00,46.2,45.1,29.76,NE,40,2.3,2.3,96,0.00,-RA,,0.00,0.0,WeatherDisplay:10.37,2013-10-16 06:36:00,
2013-10-16 01:42:00,46.1,45.0,29.76,North,360,2.3,2.3,96,0.00,-RA,,0.00,0.0,WeatherDisplay:10.37,2013-10-16 06:42:00,
2013-10-16 01:47:00,46.1,45.3,29.77,NE,38,4.6,4.6,97,0.00,-RA,,0.00,0.0,WeatherDisplay:10.37,2013-10-16 06:47:00,
2013-10-16 01:52:00,46.0,45.2,29.77,North,5,3.5,3.5,97,0.00,-RA,,0.00,0.0,WeatherDisplay:10.37,2013-10-16 06:52:00,
2013-10-16 01:57:00,46.0,45.2,29.76,ESE,123,3.0,3.0,97,0.00,-RA,,0.00,0.0,WeatherDisplay:10.37,2013-10-16 06:57:00,
2013-10-16 02:02:00,46.0,45.2,29.77,SE,126,3.5,3.5,97,0.00,-RA,,0.00,0.0,WeatherDisplay:10.37,2013-10-16 07:02:00,
2013-10-16 02:07:00,45.9,45.1,29.77,NE,38,1.1,1.1,97,0.00,OVC,,0.00,0.0,WeatherDisplay:10.37,2013-10-16 07:07:00,
2013-10-16 02:12:00,45.8,45.0,29.77,ENE,59,3.5,3.5,97,0.00,OVC,,0.00,0.0,WeatherDisplay:10.37,2013-10-16 07:12:00,
2013-10-16 02:17:00,45.8,45.0,29.77,NNE,24,2.0,2.0,97,0.00,OVC,,0.00,0.0,WeatherDisplay:10.37,2013-10-16 07:17:00,
2013-10-16 02:22:00,45.8,45.0,29.78,NNE,27,2.3,2.3,97,0.00,OVC,,0.00,0.0,WeatherDisplay:10.37,2013-10-16 07:22:00,
2013-10-16 02:27:00,45.8,45.0,29.78,North,5,3.5,3.5,97,0.00,OVC,,0.00,0.0,WeatherDisplay:10.37,2013-10-16 07:27:00,
2013-10-16 02:32:00,45.8,45.0,29.78,East,85,3.5,3.5,97,0.00,OVC,,0.00,0.0,WeatherDisplay:10.37,2013-10-16 07:32:00,
2013-10-16 02:37:00,45.7,44.9,29.78,NNE,17,2.3,2.3,97,0.00,OVC,,0.00,0.0,WeatherDisplay:10.37,2013-10-16 07:37:00,
2013-10-16 02:42:00,45.7,44.9,29.78,NNE,12,2.3,2.3,97,0.00,OVC,,0.00,0.0,WeatherDisplay:10.37,2013-10-16 07:42:00,
2013-10-16 02:47:00,45.7,44.9,29.78,NNW,332,1.1,0.0,97,0.00,OVC,,0.00,0.0,WeatherDisplay:10.37,2013-10-16 07:47:00,
2013-10-16 02:52:00,45.6,44.8,29.78,North,350,6.9,6.9,97,0.00,OVC,,0.00,0.0,WeatherDisplay:10.37,2013-10-16 07:52:00,
2013-10-16 02:57:00,45.5,44.7,29.78,NNE,20,3.5,3.5,97,0.00,OVC,,0.00,0.0,WeatherDisplay:10.37,2013-10-16 07:57:00,
2013-10-16 03:02:00,45.4,44.6,29.78,NE,51,3.5,3.5,97,0.00,OVC,,0.00,0.0,WeatherDisplay:10.37,2013-10-16 08:02:00,
2013-10-16 03:07:00,45.2,44.4,29.79,ENE,62,1.1,1.1,97,0.00,OVC,,0.00,0.0,WeatherDisplay:10.37,2013-10-16 08:07:00,
2013-10-16 03:12:00,45.2,44.1,29.79,NNE,19,1.1,0.0,96,0.00,OVC,,0.00,0.0,WeatherDisplay:10.37,2013-10-16 08:12:00,
2013-10-16 03:17:00,45.1,44.0,29.79,NE,36,6.9,6.9,96,0.00,OVC,,0.00,0.0,WeatherDisplay:10.37,2013-10-16 08:17:00,
2013-10-16 03:22:00,45.1,44.0,29.79,NW,320,2.3,2.3,96,0.00,OVC,,0.00,0.0,WeatherDisplay:10.37,2013-10-16 08:22:00,
2013-10-16 03:27:00,45.0,43.9,29.79,NNE,15,0.0,0.0,96,0.00,OVC,,0.00,0.0,WeatherDisplay:10.37,2013-10-16 08:27:00,
2013-10-16 03:32:00,44.9,43.8,29.79,NNE,31,1.1,1.1,96,0.00,OVC,,0.00,0.0,WeatherDisplay:10.37,2013-10-16 08:32:00,
2013-10-16 03:37:00,44.9,43.8,29.80,North,5,3.5,3.5,96,0.00,OVC,,0.00,0.0,WeatherDisplay:10.37,2013-10-16 08:37:00,
2013-10-16 03:42:00,44.8,44.0,29.80,NNE,19,5.8,5.8,97,0.00,OVC,,0.00,0.0,WeatherDisplay:10.37,2013-10-16 08:42:00,
2013-10-16 03:47:00,44.7,43.6,29.80,NNE,28,2.3,2.3,96,0.00,OVC,,0.00,0.0,WeatherDisplay:10.37,2013-10-16 08:47:00,
2013-10-16 03:52:00,44.6,43.5,29.80,NNE,26,2.3,2.3,96,0.00,OVC,,0.00,0.0,WeatherDisplay:10.37,2013-10-16 08:52:00,
2013-10-16 03:57:00,44.6,43.5,29.80,NNE,18,2.3,2.3,96,0.00,OVC,,0.00,0.0,WeatherDisplay:10.37,2013-10-16 08:57:00,
2013-10-16 04:02:00,44.5,43.4,29.80,NNE,26,2.3,2.3,96,0.00,OVC,,0.00,0.0,WeatherDisplay:10.37,2013-10-16 09:02:00,
2013-10-16 04:07:00,44.5,43.4,29.81,SE,128,3.0,3.0,96,0.00,OVC,,0.00,0.0,WeatherDisplay:10.37,2013-10-16 09:07:00,
2013-10-16 04:12:00,44.4,43.3,29.81,NNW,345,3.5,3.5,96,0.00,OVC,,0.00,0.0,WeatherDisplay:10.37,2013-10-16 09:12:00,
2013-10-16 04:17:00,44.3,43.2,29.81,WNW,284,1.1,1.1,96,0.00,OVC,,0.00,0.0,WeatherDisplay:10.37,2013-10-16 09:17:00,
2013-10-16 04:22:00,44.3,43.2,29.81,NNE,28,3.5,3.5,96,0.00,OVC,,0.00,0.0,WeatherDisplay:10.37,2013-10-16 09:22:00,
2013-10-16 04:27:00,44.3,43.2,29.81,NE,55,4.6,4.6,96,0.00,OVC,,0.00,0.0,WeatherDisplay:10.37,2013-10-16 09:27:00,
2013-10-16 04:32:00,44.2,43.1,29.82,NNE,24,3.5,3.5,96,0.00,OVC,,0.00,0.0,WeatherDisplay:10.37,2013-10-16 09:32:00,
2013-10-16 04:37:00,44.2,43.1,29.82,NW,316,1.1,1.1,96,0.00,OVC,,0.00,0.0,WeatherDisplay:10.37,2013-10-16 09:37:00,
2013-10-16 04:42:00,44.1,43.0,29.82,NNE,14,1.1,1.1,96,0.00,OVC,,0.00,0.0,WeatherDisplay:10.37,2013-10-16 09:42:00,
2013-10-16 04:47:00,44.1,43.0,29.82,NE,38,1.1,1.1,96,0.00,OVC,,0.00,0.0,WeatherDisplay:10.37,2013-10-16 09:47:00,
2013-10-16 04:52:00,44.1,43.0,29.83,North,11,2.3,2.3,96,0.00,OVC,,0.00,0.0,WeatherDisplay:10.37,2013-10-16 09:52:00,
2013-10-16 04:57:00,44.0,42.9,29.83,NNE,30,2.3,2.3,96,0.00,OVC,,0.00,0.0,WeatherDisplay:10.37,2013-10-16 09:57:00,
2013-10-16 05:02:00,44.0,42.9,29.83,NNE,24,3.5,3.5,96,0.00,OVC,,0.00,0.0,WeatherDisplay:10.37,2013-10-16 10:02:00,
2013-10-16 05:07:00,43.9,42.8,29.83,NNE,15,3.5,3.5,96,0.00,OVC,,0.00,0.0,WeatherDisplay:10.37,2013-10-16 10:07:00,
2013-10-16 05:12:00,43.9,42.8,29.83,NNE,23,1.1,1.1,96,0.00,OVC,,0.00,0.0,WeatherDisplay:10.37,2013-10-16 10:12:00,
2013-10-16 05:17:00,43.9,42.8,29.83,NNE,26,2.3,2.3,96,0.00,OVC,,0.00,0.0,WeatherDisplay:10.37,2013-10-16 10:17:00,
2013-10-16 05:22:00,43.8,42.7,29.83,North,360,3.5,3.5,96,0.00,OVC,,0.00,0.0,WeatherDisplay:10.37,2013-10-16 10:22:00,
2013-10-16 05:27:00,43.8,42.7,29.83,East,82,2.0,2.0,96,0.00,OVC,,0.00,0.0,WeatherDisplay:10.37,2013-10-16 10:27:00,
2013-10-16 05:32:00,43.7,42.6,29.83,West,263,3.5,3.5,96,0.00,OVC,,0.00,0.0,WeatherDisplay:10.37,2013-10-16 10:32:00,
2013-10-16 05:37:00,43.7,42.6,29.84,NW,321,1.1,1.1,96,0.00,OVC,,0.00,0.0,WeatherDisplay:10.37,2013-10-16 10:37:00,
2013-10-16 05:42:00,43.6,42.5,29.84,NNE,23,3.5,0.0,96,0.00,OVC,,0.00,0.0,WeatherDisplay:10.37,2013-10-16 10:42:00,
2013-10-16 05:47:00,43.6,42.5,29.84,West,265,2.3,2.3,96,0.00,OVC,,0.00,0.0,WeatherDisplay:10.37,2013-10-16 10:47:00,
2013-10-16 05:52:00,43.4,42.3,29.84,NNE,15,1.1,1.1,96,0.00,OVC,,0.00,0.0,WeatherDisplay:10.37,2013-10-16 10:52:00,
2013-10-16 05:57:00,43.4,42.3,29.84,WSW,245,2.3,2.3,96,0.00,OVC,,0.00,0.0,WeatherDisplay:10.37,2013-10-16 10:57:00,
2013-10-16 06:02:00,43.4,42.3,29.84,NNE,23,1.1,1.1,96,0.00,OVC,,0.00,0.0,WeatherDisplay:10.37,2013-10-16 11:02:00,
2013-10-16 06:07:00,43.3,42.2,29.85,West,264,1.1,1.1,96,0.00,OVC,,0.00,0.0,WeatherDisplay:10.37,2013-10-16 11:07:00,
2013-10-16 06:12:00,43.3,42.2,29.85,NNE,20,4.6,4.6,96,0.00,OVC,,0.00,0.0,WeatherDisplay:10.37,2013-10-16 11:12:00,
2013-10-16 06:17:00,43.3,42.2,29.85,North,9,2.3,2.3,96,0.00,OVC,,0.00,0.0,WeatherDisplay:10.37,2013-10-16 11:17:00,
2013-10-16 06:22:00,43.2,42.1,29.85,NW,323,2.0,2.0,96,0.00,OVC,,0.00,0.0,WeatherDisplay:10.37,2013-10-16 11:22:00,
2013-10-16 06:27:00,43.2,42.1,29.85,West,269,3.0,3.0,96,0.00,OVC,,0.00,0.0,WeatherDisplay:10.37,2013-10-16 11:27:00,
2013-10-16 06:32:00,43.2,42.1,29.85,NNE,22,3.5,3.5,96,0.00,OVC,,0.00,0.0,WeatherDisplay:10.37,2013-10-16 11:32:00,
2013-10-16 06:37:00,43.1,42.0,29.85,NNE,28,1.1,1.2,96,0.00,OVC,,0.00,0.0,WeatherDisplay:10.37,2013-10-16 11:37:00,
2013-10-16 06:42:00,43.1,42.0,29.85,NE,51,1.1,1.2,96,0.00,OVC,,0.00,0.0,WeatherDisplay:10.37,2013-10-16 11:42:00,
2013-10-16 06:47:00,43.0,41.7,29.85,NNW,343,4.6,4.6,95,0.00,OVC,,0.00,0.0,WeatherDisplay:10.37,2013-10-16 11:47:00,
2013-10-16 06:52:00,43.0,41.7,29.85,ENE,57,1.1,1.1,95,0.00,OVC,,0.00,0.0,WeatherDisplay:10.37,2013-10-16 11:52:00,
2013-10-16 06:57:00,42.9,41.6,29.85,East,98,2.3,2.3,95,0.00,OVC,,0.00,0.0,WeatherDisplay:10.37,2013-10-16 11:57:00,
2013-10-16 07:02:00,42.9,41.6,29.85,NW,321,3.5,3.5,95,0.00,OVC,,0.00,0.0,WeatherDisplay:10.37,2013-10-16 12:02:00,
2013-10-16 07:07:00,42.8,41.5,29.86,NW,307,2.3,2.3,95,0.00,OVC,,0.00,0.0,WeatherDisplay:10.37,2013-10-16 12:07:00,
2013-10-16 07:12:00,42.8,41.5,29.86,NE,53,3.5,3.5,95,0.00,OVC,,0.00,0.0,WeatherDisplay:10.37,2013-10-16 12:12:00,
2013-10-16 07:18:00,42.8,41.5,29.86,South,169,6.9,6.9,95,0.00,OVC,,0.00,0.0,WeatherDisplay:10.37,2013-10-16 12:18:00,
2013-10-16 07:23:00,42.8,41.5,29.86,SSE,155,1.1,1.1,95,0.00,OVC,,0.00,0.0,WeatherDisplay:10.37,2013-10-16 12:23:00,
2013-10-16 07:28:00,42.8,41.5,29.86,ENE,59,1.1,1.1,95,0.00,OVC,,0.00,0.0,WeatherDisplay:10.37,2013-10-16 12:28:00,
2013-10-16 07:33:00,42.8,41.5,29.86,NE,42,3.5,3.5,95,0.00,OVC,,0.00,0.0,WeatherDisplay:10.37,2013-10-16 12:33:00,
2013-10-16 07:38:00,42.8,41.5,29.86,NE,39,1.1,1.1,95,0.00,OVC,,0.00,0.0,WeatherDisplay:10.37,2013-10-16 12:38:00,
2013-10-16 07:43:00,42.8,41.5,29.86,ENE,63,1.1,0.0,95,0.00,OVC,,0.00,0.0,WeatherDisplay:10.37,2013-10-16 12:43:00,
2013-10-16 07:48:00,42.8,41.5,29.87,ENE,71,3.5,3.5,95,0.00,OVC,,0.00,0.0,WeatherDisplay:10.37,2013-10-16 12:48:00,
2013-10-16 07:53:00,42.8,41.5,29.87,NNE,19,3.5,3.5,95,0.00,OVC,,0.00,0.0,WeatherDisplay:10.37,2013-10-16 12:53:00,
2013-10-16 07:58:00,42.8,41.5,29.87,NNE,19,0.0,0.0,95,0.00,OVC,,0.00,5.0,WeatherDisplay:10.37,2013-10-16 12:58:00,
2013-10-16 08:03:00,42.8,41.7,29.87,North,5,1.1,1.1,96,0.00,OVC,,0.00,5.0,WeatherDisplay:10.37,2013-10-16 13:03:00,
2013-10-16 08:08:00,42.8,41.7,29.87,East,98,1.1,1.1,96,0.00,OVC,,0.00,5.0,WeatherDisplay:10.37,2013-10-16 13:08:00,
2013-10-16 08:13:00,42.9,41.8,29.87,NNE,27,2.3,2.3,96,0.00,OVC,,0.00,5.0,WeatherDisplay:10.37,2013-10-16 13:13:00,
2013-10-16 08:18:00,42.8,41.7,29.87,NNE,25,1.0,0.0,96,0.00,OVC,,0.00,5.0,WeatherDisplay:10.37,2013-10-16 13:18:00,
2013-10-16 08:23:00,42.9,41.8,29.87,NNE,25,2.3,2.3,96,0.00,OVC,,0.00,7.0,WeatherDisplay:10.37,2013-10-16 13:23:00,
2013-10-16 08:28:00,42.8,41.7,29.87,NNE,25,1.1,0.0,96,0.00,OVC,,0.00,11.0,WeatherDisplay:10.37,2013-10-16 13:28:00,
2013-10-16 08:33:00,42.9,41.8,29.88,NNE,26,1.1,0.0,96,0.00,OVC,,0.00,9.0,WeatherDisplay:10.37,2013-10-16 13:33:00,
2013-10-16 08:38:00,42.9,41.8,29.88,ENE,77,2.3,2.3,96,0.00,OVC,,0.00,12.0,WeatherDisplay:10.37,2013-10-16 13:38:00,
2013-10-16 08:43:00,42.8,41.7,29.88,SE,134,2.3,2.3,96,0.00,OVC,,0.00,14.0,WeatherDisplay:10.37,2013-10-16 13:43:00,
2013-10-16 08:48:00,42.7,41.4,29.88,NNE,14,3.5,3.5,95,0.00,OVC,,0.00,12.0,WeatherDisplay:10.37,2013-10-16 13:48:00,
2013-10-16 08:53:00,42.6,41.3,29.89,NNE,32,1.1,1.1,95,0.00,OVC,,0.00,12.0,WeatherDisplay:10.37,2013-10-16 13:53:00,
2013-10-16 08:58:00,42.6,41.3,29.89,WSW,241,0.0,0.0,95,0.00,OVC,,0.00,12.0,WeatherDisplay:10.37,2013-10-16 13:58:00,
2013-10-16 09:03:00,42.6,41.5,29.89,WNW,292,1.1,1.1,96,0.00,OVC,,0.00,16.0,WeatherDisplay:10.37,2013-10-16 14:03:00,
2013-10-16 09:08:00,42.5,41.2,29.89,ENE,63,0.0,0.0,95,0.00,OVC,,0.00,19.0,WeatherDisplay:10.37,2013-10-16 14:08:00,
2013-10-16 09:13:00,42.6,41.5,29.89,NW,323,1.1,0.0,96,0.00,OVC,,0.00,16.0,WeatherDisplay:10.37,2013-10-16 14:13:00,
2013-10-16 09:18:00,42.6,41.5,29.90,SSW,209,0.0,0.0,96,0.00,OVC,,0.00,18.0,WeatherDisplay:10.37,2013-10-16 14:18:00,
2013-10-16 09:23:00,42.5,41.4,29.90,NNE,17,2.0,2.0,96,0.00,OVC,,0.00,21.0,WeatherDisplay:10.37,2013-10-16 14:23:00,
2013-10-16 09:28:00,42.5,41.4,29.90,NE,55,1.1,0.0,96,0.00,OVC,,0.00,25.0,WeatherDisplay:10.37,2013-10-16 14:28:00,
2013-10-16 09:33:00,42.4,41.1,29.90,NNE,20,2.3,2.3,95,0.00,OVC,,0.00,28.0,WeatherDisplay:10.37,2013-10-16 14:33:00,
2013-10-16 09:38:00,42.4,41.3,29.90,NW,323,1.1,1.1,96,0.00,OVC,,0.00,30.0,WeatherDisplay:10.37,2013-10-16 14:38:00,
2013-10-16 09:43:00,42.4,41.1,29.90,East,91,3.5,3.5,95,0.00,OVC,,0.00,33.0,WeatherDisplay:10.37,2013-10-16 14:43:00,
2013-10-16 09:48:00,42.4,41.1,29.90,NNE,19,2.3,2.3,95,0.00,OVC,,0.00,51.0,WeatherDisplay:10.37,2013-10-16 14:48:00,
2013-10-16 09:53:00,42.4,41.1,29.90,North,350,2.3,2.3,95,0.00,OVC,,0.00,62.0,WeatherDisplay:10.37,2013-10-16 14:53:00,
2013-10-16 09:58:00,42.4,41.1,29.91,NW,304,2.3,2.3,95,0.00,OVC,,0.00,58.0,WeatherDisplay:10.37,2013-10-16 14:58:00,
2013-10-16 10:03:00,42.5,41.2,29.90,NW,304,0.0,0.0,95,0.00,OVC,,0.00,47.0,WeatherDisplay:10.37,2013-10-16 15:03:00,
2013-10-16 10:08:00,42.5,40.9,29.91,NE,41,1.1,0.0,94,0.00,OVC,,0.00,46.0,WeatherDisplay:10.37,2013-10-16 15:08:00,
2013-10-16 10:13:00,42.5,40.9,29.90,South,188,2.3,2.3,94,0.00,OVC,,0.00,44.0,WeatherDisplay:10.37,2013-10-16 15:13:00,
2013-10-16 10:18:00,42.6,41.0,29.91,SW,225,1.1,1.1,94,0.00,OVC,,0.00,44.0,WeatherDisplay:10.37,2013-10-16 15:18:00,
2013-10-16 10:23:00,42.6,40.7,29.90,East,80,0.0,0.0,93,0.00,OVC,,0.00,46.0,WeatherDisplay:10.37,2013-10-16 15:23:00,
2013-10-16 10:28:00,42.6,40.7,29.91,NNE,19,2.3,2.3,93,0.00,OVC,,0.00,56.0,WeatherDisplay:10.37,2013-10-16 15:28:00,
2013-10-16 10:33:00,42.7,41.1,29.90,West,267,2.3,2.3,94,0.00,OVC,,0.00,53.0,WeatherDisplay:10.37,2013-10-16 15:33:00,
2013-10-16 10:38:00,42.8,40.9,29.90,West,263,1.1,0.0,93,0.00,OVC,,0.00,56.0,WeatherDisplay:10.37,2013-10-16 15:38:00,
2013-10-16 10:43:00,42.9,41.3,29.91,West,263,1.1,1.1,94,0.00,OVC,,0.00,65.0,WeatherDisplay:10.37,2013-10-16 15:43:00,
2013-10-16 10:48:00,42.9,41.3,29.91,NNE,17,3.5,3.5,94,0.00,OVC,,0.00,81.0,WeatherDisplay:10.37,2013-10-16 15:48:00,
2013-10-16 10:53:00,43.0,41.1,29.91,North,11,0.0,0.0,93,0.00,OVC,,0.00,70.0,WeatherDisplay:10.37,2013-10-16 15:53:00,
2013-10-16 10:58:00,43.0,41.1,29.90,West,278,3.5,3.5,93,0.00,OVC,,0.00,63.0,WeatherDisplay:10.37,2013-10-16 15:58:00,
2013-10-16 11:03:00,43.0,40.8,29.90,ENE,76,3.0,3.0,92,0.00,OVC,,0.00,53.0,WeatherDisplay:10.37,2013-10-16 16:03:00,
2013-10-16 11:08:00,42.9,40.7,29.90,ENE,65,1.1,0.0,92,0.00,OVC,,0.00,53.0,WeatherDisplay:10.37,2013-10-16 16:08:00,
2013-10-16 11:13:00,43.0,41.1,29.90,ENE,65,0.0,0.0,93,0.00,OVC,,0.00,56.0,WeatherDisplay:10.37,2013-10-16 16:13:00,
2013-10-16 11:18:00,43.0,41.1,29.90,ENE,65,1.1,1.1,93,0.00,OVC,,0.00,56.0,WeatherDisplay:10.37,2013-10-16 16:18:00,
2013-10-16 11:23:00,43.0,40.8,29.90,ENE,65,1.1,0.0,92,0.00,OVC,,0.00,60.0,WeatherDisplay:10.37,2013-10-16 16:23:00,
2013-10-16 11:28:00,43.1,41.2,29.90,ESE,119,0.0,0.0,93,0.00,OVC,,0.00,60.0,WeatherDisplay:10.37,2013-10-16 16:28:00,
2013-10-16 11:33:00,43.1,41.2,29.91,ESE,119,0.0,0.0,93,0.00,OVC,,0.00,63.0,WeatherDisplay:10.37,2013-10-16 16:33:00,
2013-10-16 11:38:00,43.1,41.2,29.91,ESE,119,0.0,0.0,93,0.00,OVC,,0.00,77.0,WeatherDisplay:10.37,2013-10-16 16:38:00,
2013-10-16 11:43:00,43.2,41.6,29.91,ESE,119,0.0,0.0,94,0.00,OVC,,0.00,93.0,WeatherDisplay:10.37,2013-10-16 16:43:00,
2013-10-16 11:48:00,43.3,41.4,29.90,ENE,77,1.1,0.0,93,0.00,-RA,,0.00,79.0,WeatherDisplay:10.37,2013-10-16 16:48:00,
2013-10-16 11:53:00,43.3,41.1,29.90,ENE,76,0.0,0.0,92,0.00,-RA,,0.00,79.0,WeatherDisplay:10.37,2013-10-16 16:53:00,
2013-10-16 11:58:00,43.3,40.8,29.91,ENE,77,1.1,0.0,91,0.00,-RA,,0.00,77.0,WeatherDisplay:10.37,2013-10-16 16:58:00,
2013-10-16 12:03:00,43.4,41.2,29.91,ENE,71,0.0,0.0,92,0.00,-RA,,0.00,65.0,WeatherDisplay:10.37,2013-10-16 17:03:00,
2013-10-16 12:08:00,43.4,40.9,29.91,NNE,13,0.0,0.0,91,0.00,-RA,,0.00,69.0,WeatherDisplay:10.37,2013-10-16 17:08:00,
2013-10-16 12:13:00,43.4,40.9,29.91,ENE,71,1.1,0.0,91,0.00,-RA,,0.00,77.0,WeatherDisplay:10.37,2013-10-16 17:13:00,
2013-10-16 12:18:00,43.5,41.0,29.91,ENE,72,1.1,0.0,91,0.00,OVC,,0.00,77.0,WeatherDisplay:10.37,2013-10-16 17:18:00,
2013-10-16 12:23:00,43.5,40.8,29.91,ENE,72,1.1,0.0,90,0.00,OVC,,0.00,84.0,WeatherDisplay:10.37,2013-10-16 17:23:00,
2013-10-16 12:28:00,43.6,40.9,29.91,NNE,26,1.1,0.0,90,0.00,OVC,,0.00,72.0,WeatherDisplay:10.37,2013-10-16 17:28:00,
2013-10-16 12:33:00,43.6,40.6,29.91,NNE,26,0.0,0.0,89,0.00,OVC,,0.00,65.0,WeatherDisplay:10.37,2013-10-16 17:33:00,
2013-10-16 12:38:00,43.7,41.2,29.91,North,5,1.0,1.0,91,0.00,OVC,,0.00,63.0,WeatherDisplay:10.37,2013-10-16 17:38:00,
2013-10-16 12:43:00,43.7,41.0,29.91,NE,36,2.3,2.3,90,0.00,OVC,,0.00,62.0,WeatherDisplay:10.37,2013-10-16 17:43:00,
2013-10-16 12:48:00,43.7,41.2,29.91,NNW,344,1.1,0.0,91,0.00,OVC,,0.00,60.0,WeatherDisplay:10.37,2013-10-16 17:48:00,
2013-10-16 12:53:00,43.8,41.3,29.91,West,281,3.0,3.0,91,0.00,OVC,,0.00,70.0,WeatherDisplay:10.37,2013-10-16 17:53:00,
2013-10-16 12:58:00,43.8,41.3,29.91,WNW,282,0.0,0.0,91,0.00,OVC,,0.00,63.0,WeatherDisplay:10.37,2013-10-16 17:58:00,
2013-10-16 13:03:00,43.8,41.1,29.91,WNW,284,1.1,1.1,90,0.00,OVC,,0.00,62.0,WeatherDisplay:10.37,2013-10-16 18:03:00,
2013-10-16 13:08:00,43.8,40.8,29.91,West,273,2.3,2.3,89,0.00,OVC,,0.00,58.0,WeatherDisplay:10.37,2013-10-16 18:08:00,
2013-10-16 13:13:00,43.8,41.3,29.91,WNW,290,0.0,0.2,91,0.00,OVC,,0.00,60.0,WeatherDisplay:10.37,2013-10-16 18:13:00,
2013-10-16 13:18:00,43.8,40.8,29.90,WNW,290,1.1,0.0,89,0.00,OVC,,0.00,65.0,WeatherDisplay:10.37,2013-10-16 18:18:00,
2013-10-16 13:23:00,43.7,40.7,29.90,WNW,290,1.1,1.1,89,0.00,OVC,,0.00,63.0,WeatherDisplay:10.37,2013-10-16 18:23:00,
2013-10-16 13:27:00,43.7,40.7,29.90,WNW,290,0.0,0.0,89,0.00,OVC,,0.00,69.0,WeatherDisplay:10.37,2013-10-16 18:27:00,
2013-10-16 13:32:00,43.8,41.1,29.90,WNW,290,1.1,0.0,90,0.00,OVC,,0.00,65.0,WeatherDisplay:10.37,2013-10-16 18:32:00,
2013-10-16 13:37:00,43.8,41.1,29.90,WNW,290,1.0,1.0,90,0.00,OVC,,0.00,72.0,WeatherDisplay:10.37,2013-10-16 18:37:00,
2013-10-16 13:42:00,43.8,40.5,29.90,WNW,288,1.1,0.0,88,0.00,OVC,,0.00,83.0,WeatherDisplay:10.37,2013-10-16 18:42:00,
2013-10-16 13:47:00,44.0,41.3,29.90,WNW,288,0.0,0.0,90,0.00,OVC,,0.00,74.0,WeatherDisplay:10.37,2013-10-16 18:47:00,
2013-10-16 13:52:00,44.0,41.0,29.90,WNW,288,0.0,0.0,89,0.00,OVC,,0.00,67.0,WeatherDisplay:10.37,2013-10-16 18:52:00,
2013-10-16 13:57:00,44.1,41.1,29.90,WNW,288,2.3,0.0,89,0.00,OVC,,0.00,65.0,WeatherDisplay:10.37,2013-10-16 18:57:00,
2013-10-16 14:02:00,44.2,41.5,29.90,WNW,300,3.5,3.5,90,0.00,OVC,,0.00,63.0,WeatherDisplay:10.37,2013-10-16 19:02:00,
2013-10-16 14:07:00,44.2,41.5,29.90,WNW,300,1.0,1.0,90,0.00,OVC,,0.00,67.0,WeatherDisplay:10.37,2013-10-16 19:07:00,
2013-10-16 14:12:00,44.2,41.2,29.90,WNW,286,3.5,3.5,89,0.00,OVC,,0.00,72.0,WeatherDisplay:10.37,2013-10-16 19:12:00,
2013-10-16 14:17:00,44.2,41.2,29.90,NW,317,3.5,3.5,89,0.00,OVC,,0.00,63.0,WeatherDisplay:10.37,2013-10-16 19:17:00,
2013-10-16 14:22:00,44.3,41.3,29.89,WSW,238,3.0,3.0,89,0.00,OVC,,0.00,58.0,WeatherDisplay:10.37,2013-10-16 19:22:00,
2013-10-16 14:27:00,44.3,41.0,29.90,WSW,240,2.3,2.3,88,0.00,OVC,,0.00,54.0,WeatherDisplay:10.37,2013-10-16 19:27:00,
2013-10-16 14:32:00,44.3,41.3,29.89,WSW,240,1.1,0.0,89,0.00,OVC,,0.00,51.0,WeatherDisplay:10.37,2013-10-16 19:32:00,
2013-10-16 14:37:00,44.3,41.0,29.90,West,259,5.8,5.8,88,0.00,OVC,,0.00,47.0,WeatherDisplay:10.37,2013-10-16 19:37:00,
2013-10-16 14:42:00,44.3,41.3,29.90,WSW,242,2.3,2.3,89,0.00,OVC,,0.00,60.0,WeatherDisplay:10.37,2013-10-16 19:42:00,
2013-10-16 14:47:00,44.3,41.3,29.89,WSW,244,1.1,1.1,89,0.00,OVC,,0.00,88.0,WeatherDisplay:10.37,2013-10-16 19:47:00,
2013-10-16 14:52:00,44.3,41.0,29.90,WSW,248,1.1,1.1,88,0.00,OVC,,0.00,79.0,WeatherDisplay:10.37,2013-10-16 19:52:00,
2013-10-16 14:57:00,44.5,41.5,29.90,North,10,2.3,2.3,89,0.00,OVC,,0.00,62.0,WeatherDisplay:10.37,2013-10-16 19:57:00,
2013-10-16 15:02:00,44.5,41.5,29.90,North,5,0.0,0.0,89,0.00,OVC,,0.00,51.0,WeatherDisplay:10.37,2013-10-16 20:02:00,
2013-10-16 15:07:00,44.5,41.2,29.90,SW,222,3.5,3.5,88,0.00,OVC,,0.00,49.0,WeatherDisplay:10.37,2013-10-16 20:07:00,
2013-10-16 15:12:00,44.5,40.9,29.90,WSW,251,3.5,3.5,87,0.00,OVC,,0.00,70.0,WeatherDisplay:10.37,2013-10-16 20:12:00,
2013-10-16 15:17:00,44.5,41.2,29.90,WSW,251,1.1,0.0,88,0.00,OVC,,0.00,58.0,WeatherDisplay:10.37,2013-10-16 20:17:00,
2013-10-16 15:22:00,44.5,41.2,29.90,SW,229,1.1,1.1,88,0.00,OVC,,0.00,70.0,WeatherDisplay:10.37,2013-10-16 20:22:00,
2013-10-16 15:27:00,44.5,40.6,29.90,West,273,1.1,1.1,86,0.00,OVC,,0.00,88.0,WeatherDisplay:10.37,2013-10-16 20:27:00,
2013-10-16 15:32:00,44.6,41.0,29.90,WNW,286,1.1,1.1,87,0.00,OVC,,0.00,76.0,WeatherDisplay:10.37,2013-10-16 20:32:00,
2013-10-16 15:37:00,44.7,40.8,29.90,WNW,296,2.3,2.3,86,0.00,OVC,,0.00,69.0,WeatherDisplay:10.37,2013-10-16 20:37:00,
2013-10-16 15:42:00,44.7,40.2,29.90,SW,230,2.3,2.3,84,0.00,OVC,,0.00,54.0,WeatherDisplay:10.37,2013-10-16 20:42:00,
2013-10-16 15:47:00,44.7,40.2,29.90,North,10,1.1,1.1,84,0.00,OVC,,0.00,51.0,WeatherDisplay:10.37,2013-10-16 20:47:00,
2013-10-16 15:52:00,44.7,40.5,29.90,NW,316,1.1,1.1,85,0.00,OVC,,0.00,47.0,WeatherDisplay:10.37,2013-10-16 20:52:00,
2013-10-16 15:57:00,44.6,40.1,29.90,NNW,327,5.8,5.8,84,0.00,OVC,,0.00,51.0,WeatherDisplay:10.37,2013-10-16 20:57:00,
2013-10-16 16:02:00,44.5,40.0,29.90,NW,306,1.0,0.0,84,0.00,OVC,,0.00,51.0,WeatherDisplay:10.37,2013-10-16 21:02:00,
2013-10-16 16:07:00,44.5,40.6,29.90,WSW,243,4.0,4.0,86,0.00,OVC,,0.00,60.0,WeatherDisplay:10.37,2013-10-16 21:07:00,
2013-10-16 16:12:00,44.5,40.0,29.90,SW,233,2.3,2.3,84,0.00,OVC,,0.00,76.0,WeatherDisplay:10.37,2013-10-16 21:12:00,
2013-10-16 16:17:00,44.5,40.0,29.90,West,269,2.3,2.3,84,0.00,OVC,,0.00,67.0,WeatherDisplay:10.37,2013-10-16 21:17:00,
2013-10-16 16:22:00,44.5,39.7,29.90,NNE,20,4.0,4.0,83,0.00,OVC,,0.00,49.0,WeatherDisplay:10.37,2013-10-16 21:22:00,
2013-10-16 16:27:00,44.5,39.0,29.90,WNW,292,1.1,1.1,81,0.00,OVC,,0.00,42.0,WeatherDisplay:10.37,2013-10-16 21:27:00,
2013-10-16 16:33:00,44.4,39.2,29.90,WSW,252,2.3,2.3,82,0.00,OVC,,0.00,51.0,WeatherDisplay:10.37,2013-10-16 21:33:00,
2013-10-16 16:38:00,44.5,39.7,29.90,WSW,250,1.1,1.1,83,0.00,OVC,,0.00,58.0,WeatherDisplay:10.37,2013-10-16 21:38:00,
2013-10-16 16:43:00,44.5,40.0,29.90,WSW,254,1.1,1.1,84,0.00,OVC,,0.00,46.0,WeatherDisplay:10.37,2013-10-16 21:43:00,
2013-10-16 16:48:00,44.4,38.9,29.90,NW,305,5.8,5.8,81,0.00,SCT,,0.00,65.0,WeatherDisplay:10.37,2013-10-16 21:48:00,
2013-10-16 16:53:00,44.4,38.9,29.90,SW,226,2.3,2.3,81,0.00,SCT,,0.00,49.0,WeatherDisplay:10.37,2013-10-16 21:53:00,
2013-10-16 16:58:00,44.4,38.9,29.90,WSW,258,3.5,3.5,81,0.00,SCT,,0.00,56.0,WeatherDisplay:10.37,2013-10-16 21:58:00,
2013-10-16 17:03:00,44.4,38.9,29.90,West,259,0.0,0.0,81,0.00,SCT,,0.00,47.0,WeatherDisplay:10.37,2013-10-16 22:03:00,
2013-10-16 17:08:00,44.2,38.4,29.90,NNW,334,2.3,0.0,80,0.00,SCT,,0.00,33.0,WeatherDisplay:10.37,2013-10-16 22:08:00,
2013-10-16 17:13:00,44.1,38.6,29.90,NNW,334,0.0,0.0,81,0.00,SCT,,0.00,42.0,WeatherDisplay:10.37,2013-10-16 22:13:00,
2013-10-16 17:18:00,44.0,39.2,29.90,NNW,334,0.0,0.0,83,0.00,CLR,,0.00,32.0,WeatherDisplay:10.37,2013-10-16 22:18:00,
2013-10-16 17:23:00,43.9,39.7,29.90,NNW,334,0.0,0.0,85,0.00,CLR,,0.00,26.0,WeatherDisplay:10.37,2013-10-16 22:23:00,
2013-10-16 17:28:00,43.7,39.2,29.90,NNW,334,1.1,0.0,84,0.00,CLR,,0.00,23.0,WeatherDisplay:10.37,2013-10-16 22:28:00,
2013-10-16 17:33:00,43.4,39.5,29.90,NNW,334,0.0,0.0,86,0.00,CLR,,0.00,14.0,WeatherDisplay:10.37,2013-10-16 22:33:00,
2013-10-16 17:38:00,43.2,39.6,29.90,NNW,334,0.0,0.0,87,0.00,CLR,,0.00,14.0,WeatherDisplay:10.37,2013-10-16 22:38:00,
2013-10-16 17:43:00,42.9,39.3,29.91,NNW,334,0.0,0.0,87,0.00,CLR,,0.00,14.0,WeatherDisplay:10.37,2013-10-16 22:43:00,
2013-10-16 17:48:00,42.6,39.0,29.91,NNW,334,1.1,1.1,87,0.00,CLR,,0.00,11.0,WeatherDisplay:10.37,2013-10-16 22:48:00,
2013-10-16 17:53:00,42.2,38.9,29.90,NNW,334,1.1,1.1,88,0.00,CLR,,0.00,9.0,WeatherDisplay:10.37,2013-10-16 22:53:00,
2013-10-16 17:58:00,41.8,38.5,29.90,NNW,334,0.0,0.0,88,0.00,CLR,,0.00,7.0,WeatherDisplay:10.37,2013-10-16 22:58:00,
2013-10-16 18:03:00,41.6,38.6,29.91,NNW,334,0.0,0.0,89,0.00,CLR,,0.00,5.0,WeatherDisplay:10.37,2013-10-16 23:03:00,
2013-10-16 18:08:00,41.2,38.2,29.91,NNW,334,0.0,0.0,89,0.00,CLR,,0.00,0.0,WeatherDisplay:10.37,2013-10-16 23:08:00,
2013-10-16 18:13:00,40.9,38.2,29.90,NNW,334,0.0,0.0,90,0.00,CLR,,0.00,0.0,WeatherDisplay:10.37,2013-10-16 23:13:00,
2013-10-16 18:18:00,40.6,37.9,29.90,NNW,334,0.0,0.0,90,0.00,CLR,,0.00,0.0,WeatherDisplay:10.37,2013-10-16 23:18:00,
2013-10-16 18:23:00,40.3,37.6,29.90,NNW,334,0.0,0.0,90,0.00,CLR,,0.00,0.0,WeatherDisplay:10.37,2013-10-16 23:23:00,
2013-10-16 18:28:00,39.8,37.4,29.90,NNW,334,0.0,0.0,91,0.00,CLR,,0.00,0.0,WeatherDisplay:10.37,2013-10-16 23:28:00,
2013-10-16 18:33:00,39.6,37.2,29.91,NNW,334,0.0,0.0,91,0.00,CLR,,0.00,0.0,WeatherDisplay:10.37,2013-10-16 23:33:00,
2013-10-16 18:38:00,39.2,36.8,29.91,NNW,334,0.0,0.0,91,0.00,CLR,,0.00,0.0,WeatherDisplay:10.37,2013-10-16 23:38:00,
2013-10-16 18:43:00,38.9,36.8,29.91,NNW,334,0.0,0.0,92,0.00,CLR,,0.00,0.0,WeatherDisplay:10.37,2013-10-16 23:43:00,
2013-10-16 18:48:00,38.5,36.1,29.91,NNW,334,0.0,0.0,91,0.00,CLR,,0.00,0.0,WeatherDisplay:10.37,2013-10-16 23:48:00,
2013-10-16 18:53:00,38.2,36.1,29.91,NNW,334,0.0,0.0,92,0.00,CLR,,0.00,0.0,WeatherDisplay:10.37,2013-10-16 23:53:00,
2013-10-16 18:58:00,37.9,35.8,29.91,NNW,334,0.0,0.0,92,0.00,CLR,,0.00,0.0,WeatherDisplay:10.37,2013-10-16 23:58:00,
2013-10-16 19:03:00,37.5,35.4,29.91,NNW,334,0.0,0.0,92,0.00,CLR,,0.00,0.0,WeatherDisplay:10.37,2013-10-17 00:03:00,
2013-10-16 19:08:00,37.2,35.1,29.91,NNW,334,0.0,0.0,92,0.00,CLR,,0.00,0.0,WeatherDisplay:10.37,2013-10-17 00:08:00,
2013-10-16 19:13:00,36.9,34.8,29.91,NNW,334,0.0,0.0,92,0.00,CLR,,0.00,0.0,WeatherDisplay:10.37,2013-10-17 00:13:00,
2013-10-16 19:18:00,36.6,34.8,29.91,NNW,334,0.0,0.0,93,0.00,CLR,,0.00,0.0,WeatherDisplay:10.37,2013-10-17 00:18:00,
2013-10-16 19:23:00,36.2,34.4,29.92,NNW,334,0.0,0.0,93,0.00,CLR,,0.00,0.0,WeatherDisplay:10.37,2013-10-17 00:23:00,
2013-10-16 19:28:00,36.0,34.2,29.91,NNW,334,0.0,0.0,93,0.00,CLR,,0.00,0.0,WeatherDisplay:10.37,2013-10-17 00:28:00,
2013-10-16 19:33:00,35.7,33.9,29.91,NNW,334,0.0,0.0,93,0.00,CLR,,0.00,0.0,WeatherDisplay:10.37,2013-10-17 00:33:00,
2013-10-16 19:38:00,35.4,33.6,29.91,NNW,334,0.0,0.0,93,0.00,CLR,,0.00,0.0,WeatherDisplay:10.37,2013-10-17 00:38:00,
2013-10-16 19:43:00,35.2,33.4,29.91,NNW,334,0.0,0.0,93,0.00,CLR,,0.00,0.0,WeatherDisplay:10.37,2013-10-17 00:43:00,
2013-10-16 19:48:00,34.9,33.3,29.91,NNW,334,0.0,0.0,94,0.00,CLR,,0.00,0.0,WeatherDisplay:10.37,2013-10-17 00:48:00,
2013-10-16 19:53:00,34.7,32.9,29.92,NNW,334,0.0,0.0,93,0.00,CLR,,0.00,0.0,WeatherDisplay:10.37,2013-10-17 00:53:00,
2013-10-16 19:58:00,34.4,32.9,29.92,NNW,334,0.0,0.0,94,0.00,CLR,,0.00,0.0,WeatherDisplay:10.37,2013-10-17 00:58:00,
2013-10-16 20:03:00,34.2,32.7,29.92,NNW,334,0.0,0.0,94,0.00,CLR,,0.00,0.0,WeatherDisplay:10.37,2013-10-17 01:03:00,
2013-10-16 20:08:00,34.0,32.5,29.92,NNW,334,0.0,0.0,94,0.00,CLR,,0.00,0.0,WeatherDisplay:10.37,2013-10-17 01:08:00,
2013-10-16 20:13:00,33.8,32.3,29.92,NNW,334,0.0,0.0,94,0.00,CLR,,0.00,0.0,WeatherDisplay:10.37,2013-10-17 01:13:00,
2013-10-16 20:18:00,33.6,32.1,29.92,NNW,334,0.0,0.0,94,0.00,CLR,,0.00,0.0,WeatherDisplay:10.37,2013-10-17 01:18:00,
2013-10-16 20:23:00,33.4,31.9,29.92,NNW,334,0.0,0.0,94,0.00,CLR,,0.00,0.0,WeatherDisplay:10.37,2013-10-17 01:23:00,
2013-10-16 20:28:00,33.2,31.7,29.92,NNW,334,0.0,0.0,94,0.00,CLR,,0.00,0.0,WeatherDisplay:10.37,2013-10-17 01:28:00,
2013-10-16 20:33:00,33.0,31.5,29.92,NNW,334,0.0,0.0,94,0.00,CLR,,0.00,0.0,WeatherDisplay:10.37,2013-10-17 01:33:00,
2013-10-16 20:38:00,32.7,31.2,29.92,NNW,334,0.0,0.0,94,0.00,CLR,,0.00,0.0,WeatherDisplay:10.37,2013-10-17 01:38:00,
2013-10-16 20:43:00,32.6,31.1,29.92,NNW,334,0.0,0.0,94,0.00,CLR,,0.00,0.0,WeatherDisplay:10.37,2013-10-17 01:43:00,
2013-10-16 20:48:00,32.4,31.1,29.92,NNW,334,0.0,0.0,95,0.00,CLR,,0.00,0.0,WeatherDisplay:10.37,2013-10-17 01:48:00,
2013-10-16 20:53:00,32.3,30.8,29.92,NNW,334,0.0,0.0,94,0.00,CLR,,0.00,0.0,WeatherDisplay:10.37,2013-10-17 01:53:00,
2013-10-16 20:58:00,32.1,30.8,29.92,NNW,334,0.0,0.0,95,0.00,CLR,,0.00,0.0,WeatherDisplay:10.37,2013-10-17 01:58:00,
2013-10-16 21:03:00,32.0,30.7,29.92,NNW,334,0.0,0.0,95,0.00,CLR,,0.00,0.0,WeatherDisplay:10.37,2013-10-17 02:03:00,
2013-10-16 21:08:00,31.8,30.5,29.92,NNW,334,0.0,0.0,95,0.00,CLR,,0.00,0.0,WeatherDisplay:10.37,2013-10-17 02:08:00,
2013-10-16 21:13:00,31.7,30.4,29.92,NNW,334,0.0,0.0,95,0.00,CLR,,0.00,0.0,WeatherDisplay:10.37,2013-10-17 02:13:00,
2013-10-16 21:18:00,31.6,30.3,29.92,NNW,334,0.0,0.0,95,0.00,CLR,,0.00,0.0,WeatherDisplay:10.37,2013-10-17 02:18:00,
2013-10-16 21:23:00,31.5,30.2,29.92,NNW,334,0.0,0.0,95,0.00,CLR,,0.00,0.0,WeatherDisplay:10.37,2013-10-17 02:23:00,
2013-10-16 21:28:00,31.4,30.1,29.92,NNW,334,0.0,0.0,95,0.00,CLR,,0.00,0.0,WeatherDisplay:10.37,2013-10-17 02:28:00,
2013-10-16 21:33:00,31.4,30.1,29.92,NNW,334,0.0,0.0,95,0.00,CLR,,0.00,0.0,WeatherDisplay:10.37,2013-10-17 02:33:00,
2013-10-16 21:38:00,31.2,29.9,29.92,NNW,334,0.0,0.0,95,0.00,CLR,,0.00,0.0,WeatherDisplay:10.37,2013-10-17 02:38:00,
2013-10-16 21:43:00,31.1,29.8,29.92,NNW,334,0.0,0.0,95,0.00,CLR,,0.00,0.0,WeatherDisplay:10.37,2013-10-17 02:43:00,
2013-10-16 21:48:00,31.1,29.8,29.92,NNW,334,0.0,0.0,95,0.00,CLR,,0.00,0.0,WeatherDisplay:10.37,2013-10-17 02:48:00,
2013-10-16 21:54:00,31.1,29.8,29.92,NNW,334,0.0,0.0,95,0.00,CLR,,0.00,0.0,WeatherDisplay:10.37,2013-10-17 02:54:00,
2013-10-16 21:59:00,31.1,29.8,29.92,NNW,334,0.0,0.0,95,0.00,CLR,,0.00,0.0,WeatherDisplay:10.37,2013-10-17 02:59:00,
2013-10-16 22:04:00,31.0,30.0,29.92,NNW,334,0.0,0.0,96,0.00,CLR,,0.00,0.0,WeatherDisplay:10.37,2013-10-17 03:04:00,
2013-10-16 22:09:00,31.0,30.0,29.92,NNW,334,0.0,0.0,96,0.00,CLR,,0.00,0.0,WeatherDisplay:10.37,2013-10-17 03:09:00,
2013-10-16 22:14:00,31.1,30.1,29.92,NNW,334,0.0,0.0,96,0.00,CLR,,0.00,0.0,WeatherDisplay:10.37,2013-10-17 03:14:00,
2013-10-16 22:19:00,31.1,30.1,29.92,NNW,334,0.0,0.0,96,0.00,CLR,,0.00,0.0,WeatherDisplay:10.37,2013-10-17 03:19:00,
2013-10-16 22:24:00,31.1,30.1,29.92,NNW,334,0.0,0.0,96,0.00,CLR,,0.00,0.0,WeatherDisplay:10.37,2013-10-17 03:24:00,
2013-10-16 22:29:00,31.1,30.1,29.92,NNW,334,0.0,0.0,96,0.00,CLR,,0.00,0.0,WeatherDisplay:10.37,2013-10-17 03:29:00,
2013-10-16 22:34:00,31.2,30.2,29.92,NNW,334,0.0,0.0,96,0.00,CLR,,0.00,0.0,WeatherDisplay:10.37,2013-10-17 03:34:00,
2013-10-16 22:39:00,31.2,30.2,29.92,NNW,334,0.0,0.0,96,0.00,CLR,,0.00,0.0,WeatherDisplay:10.37,2013-10-17 03:39:00,
2013-10-16 22:44:00,31.2,30.2,29.92,NNW,334,0.0,0.0,96,0.00,CLR,,0.00,0.0,WeatherDisplay:10.37,2013-10-17 03:44:00,
2013-10-16 22:49:00,31.2,30.2,29.92,NNW,334,0.0,0.0,96,0.00,CLR,,0.00,0.0,WeatherDisplay:10.37,2013-10-17 03:49:00,
2013-10-16 22:54:00,31.2,30.2,29.92,NNW,334,0.0,0.0,96,0.00,CLR,,0.00,0.0,WeatherDisplay:10.37,2013-10-17 03:54:00,
2013-10-16 22:59:00,31.2,30.2,29.92,NNW,334,0.0,0.0,96,0.00,CLR,,0.00,0.0,WeatherDisplay:10.37,2013-10-17 03:59:00,
2013-10-16 23:01:00,31.2,30.2,29.92,NNW,334,0.0,0.0,96,0.00,CLR,,0.00,0.0,WeatherDisplay:10.37,2013-10-17 04:01:00,
2013-10-16 23:02:00,31.2,30.2,29.92,NNW,334,0.0,0.0,96,0.00,CLR,,0.00,0.0,WeatherDisplay:10.37,2013-10-17 04:02:00,
2013-10-16 23:07:00,31.1,30.1,29.92,NNW,334,0.0,0.0,96,0.00,CLR,,0.00,0.0,WeatherDisplay:10.37,2013-10-17 04:07:00,
2013-10-16 23:12:00,31.1,30.1,29.92,NNW,334,0.0,0.0,96,0.00,CLR,,0.00,0.0,WeatherDisplay:10.37,2013-10-17 04:12:00,
2013-10-16 23:17:00,31.1,30.1,29.92,NNW,334,0.0,0.0,96,0.00,CLR,,0.00,0.0,WeatherDisplay:10.37,2013-10-17 04:17:00,
2013-10-16 23:22:00,31.1,30.1,29.92,NNW,334,0.0,0.0,96,0.00,CLR,,0.00,0.0,WeatherDisplay:10.37,2013-10-17 04:22:00,
2013-10-16 23:27:00,31.0,30.0,29.92,NNW,334,0.0,0.0,96,0.00,CLR,,0.00,0.0,WeatherDisplay:10.37,2013-10-17 04:27:00,
2013-10-16 23:32:00,31.0,30.0,29.92,NNW,334,0.0,0.0,96,0.00,CLR,,0.00,0.0,WeatherDisplay:10.37,2013-10-17 04:32:00,
2013-10-16 23:37:00,31.0,30.0,29.92,NNW,334,0.0,0.0,96,0.00,CLR,,0.00,0.0,WeatherDisplay:10.37,2013-10-17 04:37:00,
2013-10-16 23:42:00,31.0,30.0,29.92,NNW,334,0.0,0.0,96,0.00,CLR,,0.00,0.0,WeatherDisplay:10.37,2013-10-17 04:42:00,
2013-10-16 23:47:00,31.0,30.0,29.92,NNW,334,0.0,0.0,96,0.00,CLR,,0.00,0.0,WeatherDisplay:10.37,2013-10-17 04:47:00,
2013-10-16 23:52:00,30.9,29.9,29.92,NNW,334,0.0,0.0,96,0.00,CLR,,0.00,0.0,WeatherDisplay:10.37,2013-10-17 04:52:00,
2013-10-16 23:57:00,30.9,29.9,29.92,NNW,334,0.0,0.0,96,0.00,CLR,,0.00,0.0,WeatherDisplay:10.37,2013-10-17 04:57:00,